{"data":{"norad_id":60136,"epoch":"2026-05-24T22:05:07.071936Z","epoch_age_seconds":85416,"freshness":"FRESH","line1":"1 60136U 24120B   26144.92022074  .00060185  00000+0  19994-2 0  9991","line2":"2 60136  53.1614 326.1149 0001455 110.9020 249.2137 15.30655950108121","mean_motion":15.3065595,"eccentricity":0.0001455,"inclination_deg":53.1614,"raan_deg":326.1149,"arg_perigee_deg":110.902,"mean_anomaly_deg":249.2137,"bstar":0.0019994,"rev_number":10812,"period_min":94.077313716384,"perigee_km":472.85705816191,"apogee_km":474.85098754956,"semimajor_km":6851.9910228557,"source":"CELESTRAK","updated_at":"2026-05-25T13:38:19.170261Z"}}